This demonstration page uses our WeatherBlox Daily Observations layout. Learn more.

Left ArrowRight Arrow

39.12711, -84.51439

Hourly Observations for September 23, 2021

Temp ( °F °C ) Dew Point ( °F °C ) Humidity (%) Winds ( mph kmh ) Pressure ( in mb ) Visibility ( mi km ) Precip ( " mm )
12:53 am 00:53 Cloudy with Light Rain 54 12.2 52 11.1 93 93 W 10 17 29.93 1014 10 16 0.00 0.00
1:53 am 01:53 Cloudy 54 12.2 51 10.6 90 90 W 7 11 29.93 1013 10 16 0.00 0.00
2:53 am 02:53 Cloudy with Light Rain 54 12.2 52 11.1 93 93 W 9 15 29.92 1013 10 16 0.00 0.00
3:01 am 03:01 Cloudy 55 12.8 51 10.6 87 87 W 10 17 29.92 1013 10 16 0.00 0.00
3:20 am 03:20 Cloudy 54 12.2 51 10.6 90 90 W 9 15 29.92 1013 10 16 0.00 0.00
3:53 am 03:53 Cloudy 55 12.8 51 10.6 87 87 W 9 15 29.91 1013 10 16 0.00 0.00
4:53 am 04:53 Cloudy with Light Rain 54 12.2 52 11.1 93 93 NNW 6 9 29.91 1013 8 13 0.02 0.51
5:13 am 05:13 Cloudy with Light Rain 53 11.7 50 10 89 89 WNW 9 15 29.92 1013 10 16 0.00 0.00
5:53 am 05:53 Cloudy 54 12.2 50 10 87 87 W 8 13 29.93 1013 10 16 0.00 0.00
6:53 am 06:53 Cloudy 53 11.7 50 10 89 89 W 5 7 29.93 1014 10 16 N/A
7:53 am 07:53 Mostly Cloudy 54 12.2 51 10.6 90 90 SW 7 11 29.93 1013 10 16 N/A
8:53 am 08:53 Mostly Cloudy 55 12.8 51 10.6 87 87 W 7 11 29.94 1014 10 16 N/A
9:53 am 09:53 Mostly Sunny 58 14.4 52 11.1 81 81 SW 9 15 29.94 1014 10 16 N/A
10:53 am 10:53 Partly Cloudy 62 16.7 52 11.1 70 70 WSW 13 20 29.95 1014 10 16 N/A
11:28 am 11:28 Cloudy 60 15.6 51 10.6 72 72 W 13 20 29.97 1015 10 16 N/A
11:40 am 11:40 Cloudy 61 16.1 52 11.1 72 72 W 9 15 29.97 1015 10 16 N/A
11:50 am 11:50 Cloudy 61 16 52 11 72 72 W 13 20 29.97 1015 10 16 N/A
11:53 am 11:53 Cloudy 61 16.1 51 10.6 70 70 W 9 15 29.96 1015 10 16 N/A
12:53 pm 12:53 Mostly Cloudy 62 16.7 52 11.1 70 70 WNW 12 19 29.96 1015 10 16 N/A
1:53 pm 13:53 Mostly Cloudy 66 18.9 51 10.6 59 59 WSW 17 28 29.95 1014 10 16 N/A
2:53 pm 14:53 Mostly Cloudy 64 17.8 50 10 60 60 WSW 12 19 29.96 1015 10 16 0.00 0.00
3:53 pm 15:53 Cloudy 66 18.9 49 9.4 54 54 NW 12 19 29.95 1014 10 16 N/A
4:53 pm 16:53 Cloudy 65 18.3 48 8.9 54 54 W 9 15 29.95 1014 10 16 N/A
5:53 pm 17:53 Mostly Cloudy 65 18.3 46 7.8 51 51 NW 6 9 29.97 1015 10 16 N/A
6:53 pm 18:53 Sunny 64 17.8 45 7.2 50 50 WSW 8 13 29.98 1015 10 16 N/A
7:53 pm 19:53 Clear 57 13.9 45 7.2 64 64 SW 8 13 30.00 1016 10 16 N/A
8:53 pm 20:53 Clear 55 12.8 46 7.8 72 72 N N/A 30.02 1017 10 16 N/A
9:53 pm 21:53 Clear 53 11.7 49 9.4 86 86 N N/A 30.03 1017 10 16 N/A
10:53 pm 22:53 Clear 49 9.4 48 8.9 97 97 N N/A 30.04 1017 10 16 N/A
11:53 pm 23:53 Clear 45 7.2 45 7.2 100 100 N N/A 30.05 1018 10 16 N/A

Powered by AerisWeather